DW6150 Weather Reports


time (UTC)temp
C
wind
direction
speed
KPH
gust
KPH
rain 1hr
cm
rain 24hr
cm
rain mn
cm
humidity
%
barometer
mb
20260510011550 10 290 0.0 1.6 0.00 1.35 1.12 1 1008.0
20260510010020 10 291 1.6 6.4 0.00 1.35 1.12 1 1007.9
20260510004553 10 207 0.0 3.2 0.00 1.35 1.12 14 1007.6
20260510003026 10 311 0.0 1.6 0.00 1.35 1.12 24 1007.4
20260510001554 11 295 0.0 1.6 0.00 1.35 1.12 38 1007.3
20260510000051 12 295 0.0 6.4 0.00 1.35 1.12 46 1007.3
20260509234559 13 34 0.0 1.6 0.00 1.35 1.12 57 1007.0
20260509233020 15 246 1.6 4.8 0.00 1.35 1.12 58 1007.0
20260509231548 15 347 0.0 3.2 0.00 1.35 1.12 14 1006.8
20260509230012 14 217 0.0 3.2 0.00 1.42 1.12 1 1006.9
20260509224537 13 154 0.0 4.8 0.00 1.42 1.12 1 1007.1
20260509223008 13 176 0.0 8.0 0.00 1.42 1.12 1 1007.1
20260509221537 13 225 0.0 6.4 0.00 1.42 1.12 2 1007.1
20260509220100 13 224 0.0 8.0 0.00 1.42 1.12 1 1007.0
20260509214529 13 99 1.6 6.4 0.00 1.42 1.12 1 1007.3
20260509213048 13 212 0.0 8.0 0.00 1.42 1.12 1 1007.5
20260509211516 13 134 1.6 4.8 0.00 1.42 1.12 1 1007.5
20260509210042 13 242 0.0 4.8 0.00 1.42 1.12 1 1007.5
20260509204506 12 185 1.6 6.4 0.05 1.42 1.12 1 1007.6
20260509203038 12 262 0.0 4.8 0.05 1.42 1.12 1 1007.8
20260509201504 11 315 1.6 8.0 0.05 1.42 1.12 1 1007.9
20260509200035 11 274 1.6 4.8 0.05 1.42 1.12 1 1008.1
20260509194554 11 277 1.6 9.7 0.00 1.40 1.07 1 1008.2
20260509193033 11 211 3.2 9.7 0.00 1.40 1.07 1 1008.2
20260509191600 11 183 3.2 6.4 0.00 1.40 1.07 1 1008.3
20260509191501 11 201 1.6 4.8 0.00 1.40 1.07 1 1008.3
20260509190034 10 172 1.6 6.4 0.05 1.40 1.07 1 1008.3
20260509184602 10 181 0.0 3.2 0.08 1.45 1.07 1 1008.3
20260509183022 10 222 1.6 11.3 0.10 1.45 1.07 1 1008.4
20260509181619 10 228 0.0 4.8 0.10 1.45 1.07 1 1008.3
20260509180018 10 154 1.6 8.0 0.05 1.42 1.02 1 1008.3
20260509174548 10 231 0.0 8.0 0.05 1.42 0.99 1 1008.2
20260509173017 10 82 0.0 6.4 0.03 1.40 0.97 1 1008.3
20260509171550 10 160 1.6 8.0 0.05 1.40 0.97 1 1008.4
20260509170028 10 260 3.2 11.3 0.05 1.40 0.97 1 1008.3
20260509164553 10 207 1.6 4.8 0.05 1.37 0.94 1 1008.2
20260509163030 10 225 1.6 6.4 0.08 1.37 0.94 1 1008.2
20260509161555 10 245 1.6 6.4 0.05 1.35 0.91 1 1008.4
20260509160016 9 253 1.6 9.7 0.08 1.35 0.91 1 1008.5
20260509154544 9 53 0.0 4.8 0.05 1.32 0.89 1 1008.7
20260509153028 9 325 0.0 3.2 0.05 1.30 0.86 1 1008.7
20260509151537 8 136 0.0 11.3 0.05 1.30 0.86 1 1008.9
20260509150057 8 212 3.2 11.3 0.05 1.27 0.84 1 1008.9
20260509144527 8 280 0.0 9.7 0.10 1.30 0.84 1 1009.0
20260509143101 8 307 1.6 6.4 0.10 1.27 0.81 1 1009.1
20260509141523 8 282 0.0 3.2 0.13 1.27 0.81 1 1009.1
20260509140043 8 246 0.0 3.2 0.10 1.24 0.79 1 1009.1
20260509134613 8 278 0.0 6.4 0.08 1.19 0.71 1 1009.3
20260509134501 8 277 0.0 6.4 0.08 1.19 0.71 1 1009.3
20260509133031 8 242 1.6 4.8 0.10 1.17 0.71 1 1009.4
20260509131558 8 224 0.0 3.2 0.10 1.14 0.69 1 1009.5
20260509130042 8 302 0.0 1.6 0.13 1.14 0.69 1 1009.6
20260509124556 8 288 0.0 4.8 0.10 1.12 0.66 1 1009.8
20260509123029 8 309 0.0 4.8 0.08 1.07 0.61 1 1009.8
20260509121608 8 300 1.6 6.4 0.05 1.04 0.58 1 1009.8
20260509120016 8 246 0.0 3.2 0.05 1.02 0.56 1 1009.9
20260509114542 8 350 0.0 1.6 0.08 1.02 0.56 1 1009.9
20260509113012 7 334 0.0 1.6 0.05 0.99 0.53 1 1009.9
20260509111545 7 350 0.0 1.6 0.08 0.99 0.53 1 1010.0
20260509110056 7 350 0.0 1.6 0.10 0.97 0.51 1 1010.1
20260509104538 7 350 0.0 0.0 0.08 0.94 0.48 1 1010.1
20260509103102 7 350 0.0 1.6 0.10 0.94 0.48 1 1010.2
20260509101532 7 350 0.0 1.6 0.08 0.91 0.46 1 1010.1
20260509100045 7 64 0.0 1.6 0.03 0.86 0.41 1 1009.9
20260509094518 7 316 0.0 1.6 0.03 0.86 0.41 1 1010.0
20260509093042 7 300 0.0 1.6 0.00 0.84 0.38 1 1010.0
20260509091507 7 301 0.0 6.4 0.00 0.84 0.38 1 1010.0
20260509090041 7 293 0.0 0.0 0.00 0.84 0.38 1 1010.2
20260509084510 7 293 0.0 0.0 0.00 0.84 0.38 1 1010.3
20260509083035 7 347 0.0 1.6 0.00 0.84 0.38 1 1010.2
20260509081606 7 18 0.0 0.0 0.00 0.84 0.38 2 1010.3
20260509080027 7 19 0.0 0.0 0.03 0.84 0.38 3 1010.3
20260509074550 7 18 0.0 3.2 0.03 0.84 0.38 4 1010.2
20260509073004 7 225 0.0 4.8 0.05 0.84 0.38 5 1010.4
20260509071528 7 107 0.0 1.6 0.08 0.84 0.38 8 1010.6
20260509070009 7 300 0.0 1.6 0.08 0.81 0.36 9 1010.9
20260509064541 7 314 0.0 1.6 0.10 0.81 0.36 12 1011.0
20260509063100 7 310 0.0 1.6 0.13 0.79 0.33 13 1011.1
20260509063002 7 311 0.0 1.6 0.13 0.79 0.33 13 1011.2
20260509061532 7 290 0.0 0.0 0.13 0.76 0.30 15 1011.5
20260509060052 7 290 0.0 0.0 0.15 0.71 0.28 16 1011.7
20260509054521 7 290 0.0 0.0 0.18 0.71 0.25 18 1011.6
20260509053050 7 290 0.0 0.0 0.15 0.66 0.20 21 1011.5
20260509051519 7 289 0.0 0.0 0.15 0.64 0.18 22 1011.7
20260509050046 8 290 0.0 1.6 0.13 0.58 0.13 23 1011.8
20260509044513 8 305 1.6 4.8 0.10 0.53 0.08 26 1011.9
20260509043045 8 322 0.0 3.2 0.08 0.51 0.05 30 1011.9
20260509041530 8 131 0.0 3.2 0.08 0.48 0.03 34 1011.9
20260509040045 8 236 0.0 1.6 0.05 0.46 0.00 40 1011.9
20260509034506 8 263 0.0 3.2 0.10 0.43 0.43 47 1011.5
20260509033036 8 298 0.0 3.2 0.15 0.43 0.43 52 1011.8
20260509031600 8 267 1.6 9.7 0.15 0.41 0.41 56 1011.9
20260509031502 8 277 1.6 8.0 0.15 0.41 0.41 55 1011.9
20260509030031 8 259 1.6 12.9 0.18 0.41 0.41 50 1012.2
20260509024548 8 293 1.6 4.8 0.10 0.36 0.33 47 1012.2
20260509023019 8 209 0.0 6.4 0.05 0.30 0.28 53 1012.1
20260509021546 8 259 0.0 3.2 0.03 0.28 0.25 58 1012.1
20260509020023 8 207 1.6 4.8 0.00 0.25 0.23 62 1011.9
20260509014546 8 217 0.0 4.8 0.00 0.25 0.23 66 1011.7
20260509013019 8 248 1.6 11.3 0.00 0.25 0.23 62 1011.5